FW0288 Weather Reports


time (UTC)temp
C
wind
direction
speed
KPH
gust
KPH
rain 1hr
cm
rain 24hr
cm
rain mn
cm
humidity
%
barometer
mb
20260903183004 27 360 1.6 12.9 0.00 0.08 0.00 29 1003.0
20260903181558 28 360 0.0 6.4 0.00 0.08 0.00 26 1003.1
20260903180106 27 22 1.6 12.9 0.00 0.08 0.00 27 1003.3
20260903174609 27 360 1.6 14.5 0.00 0.08 0.00 27 1003.4
20260903173055 27 360 0.0 12.9 0.00 0.08 0.00 30 1003.5
20260903171546 26 63 0.0 9.7 0.00 0.08 0.00 29 1003.6
20260903170105 26 360 0.0 9.7 0.00 0.08 0.00 32 1003.6
20260903164549 26 360 3.2 9.7 0.00 0.08 0.00 33 1003.6
20260903163036 27 61 0.0 3.2 0.00 0.08 0.00 29 1003.7
20260903161532 27 65 0.0 0.0 0.00 0.08 0.00 29 1003.6
20260903160031 26 117 0.0 0.0 0.00 0.08 0.00 31 1003.7
20260903154527 26 360 0.0 6.4 0.00 0.08 0.00 37 1003.7
20260903153025 26 98 0.0 0.0 0.00 0.08 0.00 34 1003.7
20260903151520 25 111 0.0 3.2 0.00 0.08 0.00 36 1003.8
20260903150023 24 93 0.0 3.2 0.00 0.08 0.00 41 1003.9
20260903144511 25 118 0.0 3.2 0.00 0.08 0.00 39 1004.1
20260903143007 23 142 0.0 0.0 0.00 0.08 0.00 41 1004.1
20260903141504 22 230 0.0 0.0 0.00 0.08 0.00 47 1004.1
20260903140058 20 231 0.0 0.0 0.00 0.08 0.00 48 1004.2
20260903134558 18 232 0.0 0.0 0.00 0.08 0.00 47 1004.1
20260903133053 17 208 0.0 0.0 0.00 0.08 0.00 51 1004.0
20260903131554 16 202 0.0 0.0 0.00 0.08 0.00 57 1003.9
20260903130044 15 178 0.0 0.0 0.00 0.08 0.00 59 1003.8
20260903124540 15 178 0.0 0.0 0.00 0.08 0.00 61 1003.5
20260903123036 14 178 0.0 0.0 0.00 0.08 0.00 62 1003.3
20260903121533 14 178 0.0 0.0 0.00 0.08 0.00 62 1003.3
20260903120031 14 177 0.0 0.0 0.00 0.08 0.00 62 1003.2
20260903114529 15 177 0.0 0.0 0.00 0.08 0.00 60 1002.9
20260903113030 15 113 0.0 0.0 0.00 0.08 0.00 60 1003.0
20260903111551 15 61 0.0 0.0 0.00 0.08 0.00 60 1003.0
20260903110027 15 60 0.0 0.0 0.00 0.08 0.00 57 1002.9
20260903104527 15 59 0.0 0.0 0.00 0.08 0.00 59 1003.0
20260903103025 16 304 0.0 0.0 0.00 0.08 0.00 58 1002.8
20260903101524 15 304 0.0 0.0 0.00 0.08 0.00 60 1002.9
20260903100023 15 319 0.0 0.0 0.00 0.08 0.00 61 1002.9
20260903094518 16 319 0.0 0.0 0.00 0.08 0.00 61 1003.0
20260903093029 16 319 0.0 1.6 0.00 0.08 0.00 60 1003.0
20260903091528 16 346 0.0 0.0 0.00 0.08 0.00 63 1003.0
20260903090014 16 345 0.0 3.2 0.00 0.08 0.00 63 1003.0
20260903084513 16 355 0.0 0.0 0.00 0.08 0.00 62 1002.8
20260903083010 17 267 0.0 0.0 0.00 0.08 0.00 60 1002.7
20260903081508 17 269 0.0 0.0 0.00 0.08 0.00 58 1002.6
20260903080005 18 212 0.0 0.0 0.00 0.08 0.00 58 1002.5
20260903074503 18 212 0.0 0.0 0.00 0.08 0.00 58 1002.5
20260903073007 18 212 0.0 0.0 0.00 0.08 0.00 59 1002.6
20260903071502 18 212 0.0 1.6 0.00 0.08 0.00 58 1002.8
20260903070001 19 212 0.0 0.0 0.00 0.08 0.00 57 1002.7
20260903064600 19 213 0.0 0.0 0.00 0.08 0.00 60 1002.8
20260903063058 18 209 0.0 3.2 0.00 0.08 0.00 61 1002.9
20260903061603 18 237 0.0 1.6 0.00 0.08 0.00 63 1002.9
20260903060053 18 205 0.0 0.0 0.00 0.08 0.00 64 1003.0
20260903054551 18 203 0.0 0.0 0.00 0.08 0.08 64 1003.0
20260903053105 18 200 0.0 0.0 0.00 0.08 0.08 65 1002.8
20260903051551 18 184 0.0 4.8 0.00 0.08 0.08 68 1002.8
20260903050049 18 183 0.0 0.0 0.00 0.08 0.08 65 1002.5
20260903044549 18 188 0.0 0.0 0.00 0.08 0.08 69 1003.5
20260903043048 17 321 0.0 0.0 0.00 0.08 0.08 70 1003.2
20260903041549 17 321 0.0 0.0 0.00 0.08 0.08 73 1003.5
20260903040048 17 321 0.0 0.0 0.03 0.08 0.08 75 1003.2
20260903034547 17 321 0.0 0.0 0.03 0.08 0.08 75 1003.0
20260903033051 18 321 0.0 0.0 0.08 0.08 0.08 74 1002.8
20260903031550 18 321 0.0 0.0 0.08 0.08 0.08 72 1003.2
20260903030107 20 321 0.0 0.0 0.05 0.05 0.05 63 1002.8
20260903024541 21 321 0.0 3.2 0.05 0.05 0.05 54 1003.3
20260903023041 22 321 0.0 0.0 0.00 0.00 0.00 48 1002.7
20260903021540 22 360 0.0 6.4 0.00 0.00 0.00 46 1002.2
20260903020039 23 5 0.0 12.9 0.00 0.00 0.00 44 1001.7
20260903014539 23 346 0.0 0.0 0.00 0.00 0.00 42 1001.9
20260903013044 24 20 0.0 6.4 0.00 0.00 0.00 40 1001.7
20260903011543 25 346 0.0 0.0 0.00 0.00 0.00 37 1001.6
20260903010040 25 360 0.0 0.0 0.00 0.00 0.00 36 1001.5
20260903004537 25 355 0.0 1.6 0.00 0.00 0.00 35 1001.5
20260903003040 26 283 0.0 1.6 0.00 0.00 0.00 34 1001.5
20260903001536 26 279 0.0 4.8 0.00 0.00 0.00 32 1001.5
20260903000038 27 286 0.0 11.3 0.00 0.00 0.00 30 1001.3
20260902234535 28 293 0.0 12.9 0.00 0.00 0.00 30 1001.3
20260902233035 28 247 1.6 12.9 0.00 0.00 0.00 28 1001.5
20260902231541 28 254 1.6 16.1 0.00 0.00 0.00 27 1001.6
20260902230033 28 283 0.0 17.7 0.00 0.00 0.00 27 1001.8
20260902224549 28 121 0.0 0.0 0.00 0.00 0.00 28 1001.6
20260902223046 28 90 0.0 3.2 0.00 0.00 0.00 28 1001.1
20260902221542 28 360 0.0 3.2 0.00 0.00 0.00 25 1000.8
20260902220050 28 360 0.0 17.7 0.00 0.00 0.00 25 1001.0
20260902214528 28 360 0.0 4.8 0.00 0.00 0.00 24 1001.3
20260902213027 28 360 0.0 9.7 0.00 0.00 0.00 25 1001.6
20260902211526 28 360 0.0 6.4 0.00 0.00 0.00 27 1001.8
20260902210024 28 360 0.0 14.5 0.00 0.00 0.00 24 1002.0
20260902204525 28 110 1.6 14.5 0.00 0.00 0.00 28 1002.3
20260902203019 29 38 1.6 12.9 0.00 0.00 0.00 29 1002.6
20260902201534 28 148 0.0 8.0 0.00 0.00 0.00 27 1002.8
20260902200014 28 360 1.6 24.1 0.00 0.00 0.00 26 1003.0
20260902194526 28 86 0.0 17.7 0.00 0.00 0.00 26 1003.1
20260902193032 28 360 1.6 11.3 0.00 0.00 0.00 26 1003.4
20260902191510 27 360 1.6 6.4 0.00 0.00 0.00 30 1003.7
20260902190012 28 20 0.0 8.0 0.00 0.00 0.00 29 1003.7
20260902184511 27 360 1.6 6.4 0.00 0.00 0.00 29 1003.9